This is the latest recevied weather packets stored in our database for station/object KF0JJO. If no packets are shown the sender has not sent any weather packets the latest 10 day(s).
| Time | Temp. | Humidity | Pressure | Rain* | Wind** | Luminosity | Snow |
|---|---|---|---|---|---|---|---|
| 1777924006 | 17.78° C | 34% | 1031.7 hPa | 0 mm | - | 851 W/m² | - |
| 1777923702 | 17.22° C | 33% | 1031.7 hPa | 0 mm | - | 804 W/m² | - |
| 1777923399 | 17.22° C | 32% | 1031.8 hPa | 0 mm | - | 723 W/m² | - |
| 1777923097 | 17.22° C | 31% | 1031.9 hPa | 0 mm | - | 779 W/m² | - |
| 1777922795 | 17.22° C | 33% | 1031.7 hPa | 0 mm | - | 887 W/m² | - |
| 1777922493 | 16.67° C | 34% | 1031.5 hPa | 0 mm | - | 872 W/m² | - |
| 1777922191 | 16.67° C | 34% | 1031.6 hPa | 0 mm | - | 280 W/m² | - |
| 1777921887 | 17.22° C | 32% | 1031.3 hPa | 0 mm | - | 447 W/m² | - |
| 1777921583 | 18.33° C | 31% | 1031.2 hPa | 0 mm | - | 453 W/m² | - |
| 1777921280 | 18.33° C | 32% | 1031.4 hPa | 0 mm | - | 940 W/m² | - |
| 1777920976 | 17.78° C | 33% | 1031 hPa | 0 mm | - | 988 W/m² | - |
| 1777920673 | 17.78° C | 32% | 1031.2 hPa | 0 mm | - | 625 W/m² | - |
| 1777920369 | 17.22° C | 33% | 1031.1 hPa | 0 mm | - | 913 W/m² | - |
| 1777920064 | 17.22° C | 34% | 1030.9 hPa | 0 mm | - | 755 W/m² | - |
| 1777919761 | 17.78° C | 32% | 1030.7 hPa | 0 mm | - | 697 W/m² | - |
| 1777919459 | 17.78° C | 30% | 1030.7 hPa | 0 mm | - | 861 W/m² | - |
| 1777919156 | 18.33° C | 29% | 1030.9 hPa | 0 mm | - | 932 W/m² | - |
| 1777918853 | 17.78° C | 31% | 1030.8 hPa | 0 mm | - | 636 W/m² | - |
| 1777918550 | 17.78° C | 29% | 1030.6 hPa | 0 mm | - | 373 W/m² | - |
| 1777918248 | 17.78° C | 30% | 1030.4 hPa | 0 mm | - | 644 W/m² | - |
| 1777917947 | 17.78° C | 32% | 1030.4 hPa | 0 mm | - | 832 W/m² | - |
| 1777917646 | 17.78° C | 31% | 1030.4 hPa | 0 mm | - | 388 W/m² | - |
| 1777917342 | 18.33° C | 31% | 1030.2 hPa | 0 mm | - | 756 W/m² | - |
| 1777917039 | 17.78° C | 31% | 1030.5 hPa | 0 mm | - | 956 W/m² | - |
| 1777916737 | 17.78° C | 34% | 1030.2 hPa | 0 mm | - | 924 W/m² | - |
* Rain latest hour (hover to see other rain measurements)
** Current wind speed in m/s (hover to see current wind gust speed)